Location: Kunchanapalle
(16.4623°N, 80.6176°E)
Time: 14:26:55
(UTC+00:00)

SL-08 R/B - Pass Details

Date: 13 August 2020
Orbit: 950 x 1018 km, 82.9° (Epoch: 24 September)

Event Time Altitude Azimuth Distance (km) Brightness Sun altitude
Rises 13:39:53 0° 176° (S) 3,695 7.3 -9.2°
Reaches altitude 10° 13:42:27 10° 172° (S) 2,737 6.6 -9.8°
Maximum altitude 13:48:38 64° 93° (E) 1,073 4.5 -11.2°
Drops below altitude 10° 13:54:43 10° 13° (NNE) 2,696 6.9 -12.6°
Sets 13:57:13 0° 10° (N) 3,636 7.6 -13.2°
